Weather History for Crestview, FL

Change the Weather History Date:

Wednesday, December 4, 2013

  Actual Average Record
Temperature  
Mean Temperature 70 °F -  
Max Temperature 82 °F - - ()
Min Temperature 59 °F - - ()
Cooling Degree Days 6    
Growing Degree Days 20 (Base 50)    
Moisture  
Dew Point 66 °F    
Average Humidity 98    
Maximum Humidity 100    
Minimum Humidity 67    
Precipitation  
Precipitation 2.30 in - - ()
Sea Level Pressure  
Sea Level Pressure 29.94 in    
Wind  
Wind Speed 6 mph (SSE)    
Max Wind Speed 16 mph    
Max Gust Speed -    
Visibility 3 miles    
Events Fog , Rain    
T = Trace of Precipitation, MM = Missing Value Source: NWS Daily Summary

Daily Weather History Graph

Daily Weather History Graph

Search for Another Location

Airport:

Trip Planner

Search our weather history database for the weather conditions in past years. The results will help you decide how hot, cold, wet, or windy it might be!

Date:

Astronomy

Dec. 04, 2013 Rise Set
Actual Time 6:28 AM CST 4:44 PM CST
Civil Twilight 6:02 AM CST 5:10 PM CST
Nautical Twilight 5:32 AM CST 5:40 PM CST
Astronomical Twilight 5:02 AM CST 6:09 PM CST
Moon 7:58 AM CST (12/4) 6:50 PM CST (12/4)
Length of Visible Light 11h 08m
Length of Day
10h 16m
Waxing Crescent, 4% of the Moon is Illuminated
Dec 4
Waxing Crescent
Dec 9
First Quarter
Dec 17
Full
Dec 25
Last Quarter
Jan 1
New

Hourly Weather History & Observations

Time (CST) Temp. Heat Index Dew Point Humidity Pressure Visibility Wind Dir Wind Speed Gust Speed Precip Events Conditions
12:08 AM 60.8 °F - 59.0 °F 94% 29.89 in 0.8 mi SSW 5.8 mph - N/A   Partly Cloudy
12:13 AM 60.8 °F - 60.8 °F 100% 29.89 in 1.0 mi South 6.9 mph - N/A   Partly Cloudy
12:18 AM 60.8 °F - 60.8 °F 100% 29.89 in 1.5 mi SSE 6.9 mph - N/A   Partly Cloudy
12:23 AM 62.6 °F - 62.6 °F 100% 29.89 in 3.0 mi South 6.9 mph - N/A   Partly Cloudy
12:43 AM 62.6 °F - 62.6 °F 100% 29.89 in 2.5 mi South 5.8 mph - N/A   Partly Cloudy
12:53 AM 62.6 °F - 62.6 °F 100% 29.89 in 4.0 mi SSE 4.6 mph - N/A   Clear
12:58 AM 63.0 °F - 62.6 °F 99% 29.90 in 6.0 mi SSE 4.6 mph - N/A   Clear
1:13 AM 62.6 °F - 62.6 °F 100% 29.89 in 2.5 mi SSE 3.5 mph - N/A   Clear
1:18 AM 62.6 °F - 62.6 °F 100% 29.90 in 1.2 mi South 2.3 mph - N/A   Partly Cloudy
1:21 AM 62.6 °F - 62.6 °F 100% 29.90 in 1.0 mi South 2.3 mph - N/A   Light Drizzle
1:26 AM 62.6 °F - 62.6 °F 100% 29.90 in 1.2 mi SSE 3.5 mph - N/A Rain Light Rain
1:31 AM 62.6 °F - 62.6 °F 100% 29.90 in 2.5 mi SE 4.6 mph - N/A Rain Light Rain
1:36 AM 62.6 °F - 62.6 °F 100% 29.90 in 4.0 mi Variable 1.2 mph - N/A Rain Light Rain
1:47 AM 64.4 °F - 64.4 °F 100% 29.91 in 9.0 mi SSE 4.6 mph - N/A   Partly Cloudy
1:58 AM 63.5 °F - 63.1 °F 99% 29.92 in 9.0 mi SSE 2.3 mph - 0.00 in   Partly Cloudy
2:08 AM 62.6 °F - 62.6 °F 100% 29.91 in 1.0 mi SE 2.3 mph - N/A   Partly Cloudy
2:13 AM 62.6 °F - 62.6 °F 100% 29.91 in 0.8 mi SE 3.5 mph - N/A   Clear
2:18 AM 62.6 °F - 62.6 °F 100% 29.91 in 1.0 mi SSE 3.5 mph - N/A   Clear
2:28 AM 60.8 °F - 60.8 °F 100% 29.91 in 0.8 mi SSE 3.5 mph - N/A   Partly Cloudy
2:33 AM 60.8 °F - 60.8 °F 100% 29.91 in 0.5 mi SSE 3.5 mph - N/A Fog Fog
2:38 AM 60.8 °F - 59.0 °F 94% 29.91 in 0.8 mi SSE 3.5 mph - N/A   Clear
2:48 AM 59.0 °F - 59.0 °F 100% 29.91 in 0.5 mi SSE 4.6 mph - N/A Fog Fog
2:58 AM 60.1 °F - 59.9 °F 99% 29.92 in 0.8 mi SSE 4.6 mph - N/A   Mist
3:03 AM 60.8 °F - 60.8 °F 100% 29.91 in 1.8 mi SSE 3.5 mph - N/A   Scattered Clouds
3:08 AM 60.8 °F - 59.0 °F 94% 29.91 in 1.0 mi SSE 4.6 mph - N/A   Scattered Clouds
3:13 AM 60.8 °F - 60.8 °F 100% 29.91 in 0.8 mi SSE 3.5 mph - N/A   Partly Cloudy
3:18 AM 60.8 °F - 60.8 °F 100% 29.91 in 0.8 mi SSE 3.5 mph - N/A   Mist
3:23 AM 60.8 °F - 60.8 °F 100% 29.92 in 0.8 mi SSE 4.6 mph - N/A   Scattered Clouds
3:28 AM 60.8 °F - 60.8 °F 100% 29.92 in 1.5 mi SSE 4.6 mph - N/A   Scattered Clouds
3:33 AM 62.6 °F - 60.8 °F 94% 29.91 in 6.0 mi SSE 3.5 mph - N/A   Partly Cloudy
3:38 AM 60.8 °F - 60.8 °F 100% 29.91 in 2.5 mi SSE 3.5 mph - N/A   Partly Cloudy
3:43 AM 62.6 °F - 62.6 °F 100% 29.91 in 2.0 mi South 4.6 mph - N/A   Scattered Clouds
3:48 AM 62.6 °F - 62.6 °F 100% 29.91 in 2.5 mi South 2.3 mph - N/A   Partly Cloudy
3:58 AM 63.5 °F - 63.3 °F 99% 29.93 in 3.0 mi SSW 4.6 mph - N/A   Scattered Clouds
4:43 AM 64.4 °F - 64.4 °F 100% 29.91 in 1.5 mi South 5.8 mph - N/A   Scattered Clouds
4:48 AM 62.6 °F - 62.6 °F 100% 29.91 in 0.8 mi South 4.6 mph - N/A   Partly Cloudy
4:53 AM 62.6 °F - 62.6 °F 100% 29.92 in 0.5 mi South 4.6 mph - N/A Fog Fog
4:58 AM 62.2 °F - 62.1 °F 99% 29.93 in 0.5 mi South 4.6 mph - 0.01 in Fog Fog
5:18 AM 62.6 °F - 62.6 °F 100% 29.92 in 0.8 mi SSE 4.6 mph - N/A   Partly Cloudy
5:23 AM 62.6 °F - 62.6 °F 100% 29.92 in 1.0 mi SSE 4.6 mph - N/A   Scattered Clouds
5:28 AM 64.4 °F - 62.6 °F 94% 29.92 in 1.2 mi SSE 4.6 mph - N/A   Scattered Clouds
5:33 AM 64.4 °F - 62.6 °F 94% 29.93 in 1.5 mi SSE 4.6 mph - N/A   Scattered Clouds
5:36 AM 64.4 °F - 64.4 °F 100% 29.93 in 1.5 mi SSE 4.6 mph - N/A   Scattered Clouds
5:41 AM 64.4 °F - 64.4 °F 100% 29.93 in 1.2 mi South 4.6 mph - N/A   Scattered Clouds
5:46 AM 64.4 °F - 62.6 °F 94% 29.93 in 0.8 mi SSE 4.6 mph - N/A   Mostly Cloudy
5:51 AM 64.4 °F - 64.4 °F 100% 29.93 in 0.8 mi SSE 5.8 mph - N/A   Mostly Cloudy
5:55 AM 64.8 °F - 64.8 °F 100% 29.93 in 0.8 mi SSE 4.6 mph - N/A   Mist
5:56 AM 64.4 °F - 64.4 °F 100% 29.93 in 0.5 mi SSE 4.6 mph - N/A Fog Fog
5:58 AM 64.4 °F - 64.4 °F 100% 29.94 in 0.5 mi SSE 4.6 mph - N/A Fog Fog
6:10 AM 68.0 °F - 68.0 °F 100% 29.94 in 0.5 mi South 4.6 mph - N/A Fog Fog
6:29 AM 78.8 °F - 78.8 °F 100% 29.94 in 0.8 mi South 6.9 mph - N/A   Overcast
6:55 AM 79.9 °F - 79.9 °F 100% 29.96 in 0.8 mi South 6.9 mph - N/A   Overcast
7:13 AM 78.8 °F - 78.8 °F 100% 29.96 in 0.2 mi SSE 4.6 mph - N/A Fog Fog
7:55 AM 81.1 °F 91.3 °F 81.1 °F 100% 29.99 in 0.2 mi SSE 5.8 mph - N/A Fog Fog
8:04 AM 80.6 °F 89.3 °F 80.6 °F 100% 29.97 in 1.0 mi South 6.9 mph - N/A   Overcast
8:17 AM 82.4 °F 96.1 °F 82.4 °F 100% 29.97 in 3.0 mi South 5.8 mph - N/A   Overcast
8:31 AM 82.4 °F 96.1 °F 82.4 °F 100% 29.97 in 5.0 mi SSE 5.8 mph - N/A   Mostly Cloudy
8:55 AM 75.6 °F - 69.3 °F 81% 29.99 in 5.0 mi South 6.9 mph - 0.00 in   Mostly Cloudy
9:55 AM 75.6 °F - 69.1 °F 80% 30.01 in 10.0 mi South 15.0 mph - N/A   Mostly Cloudy
10:55 AM 76.1 °F - 64.2 °F 67% 30.01 in 10.0 mi South 10.4 mph - N/A   Mostly Cloudy
11:55 AM 75.7 °F - 65.7 °F 71% 29.97 in 3.0 mi South 16.1 mph - 0.00 in Rain Light Rain Showers
12:55 PM 72.1 °F - 70.0 °F 93% 29.96 in 10.0 mi South 11.5 mph - 0.08 in   Mostly Cloudy
1:12 PM 71.6 °F - 69.8 °F 94% 29.94 in 10.0 mi SSE 11.5 mph - N/A Rain Light Rain Showers
1:55 PM 68.9 °F - 68.0 °F 97% 29.94 in 5.0 mi Variable 3.5 mph - 0.19 in Rain Rain Showers
2:30 PM 69.8 °F - 69.8 °F 100% 29.93 in 10.0 mi South 3.5 mph - N/A   Overcast
2:55 PM 70.5 °F - 70.3 °F 99% 29.94 in 10.0 mi South 9.2 mph - 0.10 in   Mostly Cloudy
3:55 PM 72.0 °F - 69.3 °F 91% 29.96 in 10.0 mi SSE 8.1 mph - N/A   Mostly Cloudy
4:45 PM 71.6 °F - 69.8 °F 94% 29.95 in 7.0 mi SSE 6.9 mph - N/A Rain Light Rain Showers
4:55 PM 70.9 °F - 69.6 °F 96% 29.96 in 7.0 mi SSE 8.1 mph - 0.00 in Rain Light Rain Showers
5:30 PM 69.8 °F - 69.8 °F 100% 29.94 in 2.0 mi SSE 9.2 mph - N/A Rain Light Rain
5:55 PM 70.2 °F - 69.8 °F 99% 29.97 in 2.0 mi SSE 10.4 mph - 0.19 in Rain Light Rain
6:21 PM 69.8 °F - 69.8 °F 100% 29.97 in 4.0 mi South 9.2 mph - N/A   Overcast
6:55 PM 69.3 °F - 68.9 °F 99% 29.98 in 7.0 mi South 12.7 mph - 0.05 in   Overcast
7:06 PM 69.8 °F - 69.8 °F 100% 29.97 in 5.0 mi SSE 10.4 mph - N/A Rain Light Rain
7:22 PM 69.8 °F - 68.0 °F 94% 29.98 in 6.0 mi SSE 8.1 mph - N/A   Light Drizzle
7:55 PM 68.5 °F - 68.4 °F 99% 29.98 in 5.0 mi SE 5.8 mph - 0.03 in Rain Light Rain
8:43 PM 68.0 °F - 68.0 °F 100% 29.99 in 3.0 mi South 4.6 mph - N/A Rain Light Rain
8:57 PM 68.5 °F - 68.2 °F 99% 29.99 in 2.5 mi Variable 2.3 mph - 0.12 in Rain Rain
9:43 PM 69.8 °F - 69.8 °F 100% 29.99 in 3.0 mi WSW 9.2 mph - N/A Rain Light Rain
9:55 PM 69.4 °F - 69.1 °F 99% 30.01 in 1.5 mi WSW 9.2 mph - 0.51 in Rain Heavy Rain
10:17 PM 69.8 °F - 69.8 °F 100% 30.00 in 3.0 mi SSW 3.5 mph - N/A Rain Light Rain
10:49 PM 69.8 °F - 69.8 °F 100% 30.01 in 3.0 mi SSW 6.9 mph - N/A Rain Light Rain
10:55 PM 70.3 °F - 70.3 °F 100% 30.01 in 4.0 mi SSW 5.8 mph - 0.45 in Rain Light Rain
11:27 PM 69.8 °F - 69.8 °F 100% 30.00 in 1.5 mi SW 6.9 mph - N/A Rain Heavy Rain
11:44 PM 71.6 °F - 71.6 °F 100% 30.00 in 3.0 mi SW 10.4 mph - N/A Rain Light Rain
11:55 PM 71.6 °F - 71.2 °F 99% 30.01 in 3.0 mi SSW 13.8 mph - 0.57 in Rain Light Rain
11:56 PM 71.6 °F - 71.6 °F 100% 30.00 in 10.0 mi SSW 12.7 mph - N/A   Light Drizzle